FDX24 KMCO-KEWR

Flight info

Callsign FDX24
Flight time 2h 11m
Altitude 37000
Route FATHE4 VIYAP Q87 ALWZZ OGRAE Q99 QUART PHLBO4
Aircraft B77L/H-SDE1E2E3FGHIJ2J3J4J5M1RWXY/LB1D1

Departure

Time 2026-05-05 19:48
Airport Orlando International Airport (KMCO)

Arrival

Time 2026-05-05 21:59
Airport Newark Liberty International Airport (KEWR)
Time Latitude Longitude Altitude Speed Heading
2026-05-05 19:33 28.41472 -81.33553 112 ft 0 kts 358°
2026-05-05 19:38 28.41457 -81.33553 109 ft 4 kts 359°
2026-05-05 19:39 28.41431 -81.33556 108 ft 4 kts 24°
2026-05-05 19:39 28.41410 -81.33573 108 ft 4 kts 58°
2026-05-05 19:39 28.41402 -81.33596 109 ft 1 kts 90°
2026-05-05 19:39 28.41402 -81.33602 108 ft 0 kts 90°
2026-05-05 19:43 28.41402 -81.33585 108 ft 6 kts 90°
2026-05-05 19:43 28.41402 -81.33501 108 ft 15 kts 90°
2026-05-05 19:44 28.41403 -81.33359 112 ft 18 kts 89°
2026-05-05 19:44 28.41404 -81.33229 110 ft 16 kts 89°
2026-05-05 19:44 28.41406 -81.33093 111 ft 17 kts 83°
2026-05-05 19:44 28.41460 -81.32997 113 ft 14 kts 49°
2026-05-05 19:45 28.41522 -81.32917 114 ft 8 kts 59°
2026-05-05 19:45 28.41534 -81.32861 114 ft 10 kts 80°
2026-05-05 19:45 28.41537 -81.32787 113 ft 8 kts 88°
2026-05-05 19:45 28.41537 -81.32675 114 ft 21 kts 90°
2026-05-05 19:46 28.41538 -81.32510 111 ft 21 kts 89°
2026-05-05 19:46 28.41540 -81.32342 108 ft 21 kts 90°
2026-05-05 19:46 28.41558 -81.32212 109 ft 10 kts 49°
2026-05-05 19:46 28.41587 -81.32196 108 ft 1 kts
2026-05-05 19:47 28.41642 -81.32197 109 ft 30 kts 360°
2026-05-05 19:47 28.42151 -81.32201 113 ft 115 kts 359°
2026-05-05 19:47 28.43237 -81.32217 110 ft 195 kts 358°
2026-05-05 19:47 28.44828 -81.32189 481 ft 246 kts
2026-05-05 19:48 28.46516 -81.32206 1622 ft 245 kts 357°
2026-05-05 19:48 28.48233 -81.32344 2230 ft 248 kts 357°
2026-05-05 19:48 28.49965 -81.32349 2726 ft 249 kts
2026-05-05 19:48 28.51663 -81.32310 3148 ft 245 kts
2026-05-05 19:49 28.53382 -81.32323 3580 ft 245 kts 359°
2026-05-05 19:49 28.55087 -81.32335 4115 ft 247 kts
2026-05-05 19:49 28.56815 -81.32192 4681 ft 250 kts
2026-05-05 19:49 28.58588 -81.31993 5266 ft 259 kts
2026-05-05 19:50 28.60389 -81.31838 5808 ft 260 kts
2026-05-05 19:50 28.62208 -81.31725 6355 ft 263 kts
2026-05-05 19:50 28.64028 -81.31488 6736 ft 269 kts
2026-05-05 19:50 28.65860 -81.31188 7139 ft 263 kts
2026-05-05 19:51 28.67725 -81.30960 7729 ft 276 kts
2026-05-05 19:51 28.69648 -81.30736 8299 ft 279 kts
2026-05-05 19:51 28.71573 -81.30429 8848 ft 281 kts
2026-05-05 19:51 28.73541 -81.30194 9405 ft 284 kts
2026-05-05 19:52 28.75516 -81.29955 9979 ft 288 kts
2026-05-05 19:52 28.77515 -81.29691 10496 ft 290 kts
2026-05-05 19:52 28.79523 -81.29425 11016 ft 289 kts
2026-05-05 19:52 28.81522 -81.29197 11542 ft 288 kts
2026-05-05 19:53 28.83528 -81.29051 12082 ft 289 kts 359°
2026-05-05 19:53 28.85542 -81.28962 12621 ft 289 kts 355°
2026-05-05 19:53 28.87548 -81.29097 13184 ft 288 kts 351°
2026-05-05 19:53 28.89549 -81.29306 13752 ft 290 kts 351°
2026-05-05 19:54 28.91569 -81.29483 14259 ft 292 kts 352°
2026-05-05 19:54 28.93594 -81.29646 14797 ft 293 kts 352°
2026-05-05 19:54 28.95603 -81.29810 15312 ft 294 kts 353°
2026-05-05 19:54 28.97658 -81.29919 15838 ft 295 kts 351°
2026-05-05 19:55 28.99706 -81.30155 16395 ft 296 kts 349°
2026-05-05 19:55 29.01795 -81.30424 16783 ft 314 kts 350°
2026-05-05 19:55 29.04088 -81.30685 16991 ft 349 kts 351°
2026-05-05 19:55 29.06634 -81.30957 17095 ft 386 kts 351°
2026-05-05 19:56 29.09434 -81.31336 17123 ft 423 kts 351°
2026-05-05 19:56 29.12431 -81.31527 17106 ft 432 kts 355°
2026-05-05 19:56 29.15424 -81.31691 17066 ft 428 kts 353°
2026-05-05 19:56 29.18385 -81.31877 17036 ft 425 kts 354°
2026-05-05 19:57 29.21338 -81.32044 17029 ft 425 kts 354°
2026-05-05 19:57 29.24298 -81.32224 17027 ft 426 kts 354°
2026-05-05 19:57 29.27260 -81.32401 17029 ft 426 kts 354°
2026-05-05 19:57 29.30214 -81.32579 17032 ft 425 kts 354°
2026-05-05 19:58 29.33171 -81.32759 17025 ft 426 kts 354°
2026-05-05 19:58 29.36110 -81.32931 17478 ft 422 kts 354°
2026-05-05 19:58 29.39061 -81.33114 17944 ft 428 kts 354°
2026-05-05 19:58 29.42052 -81.33292 18416 ft 432 kts 354°
2026-05-05 19:59 29.45026 -81.33471 18814 ft 434 kts 353°
2026-05-05 19:59 29.48064 -81.33654 19232 ft 437 kts 353°
2026-05-05 19:59 29.51110 -81.33837 19643 ft 440 kts 353°
2026-05-05 19:59 29.53956 -81.34012 20035 ft 442 kts 353°
2026-05-05 20:00 29.56694 -81.34175 20418 ft 445 kts 353°
2026-05-05 20:00 29.59803 -81.34366 20848 ft 447 kts 352°
2026-05-05 20:00 29.62922 -81.34567 21290 ft 450 kts 353°
2026-05-05 20:00 29.66057 -81.34734 21734 ft 453 kts 352°
2026-05-05 20:01 29.69219 -81.34915 22195 ft 456 kts 352°
2026-05-05 20:01 29.72393 -81.35099 22655 ft 459 kts 352°
2026-05-05 20:01 29.75548 -81.35278 23115 ft 461 kts 352°
2026-05-05 20:01 29.78765 -81.35464 23598 ft 464 kts 352°
2026-05-05 20:02 29.82003 -81.35648 24008 ft 467 kts 351°
2026-05-05 20:02 29.85260 -81.35838 24409 ft 469 kts 352°
2026-05-05 20:02 29.88526 -81.36023 24811 ft 470 kts 351°
2026-05-05 20:02 29.91788 -81.36211 25228 ft 471 kts 351°
2026-05-05 20:03 29.95066 -81.36401 25644 ft 473 kts 351°
2026-05-05 20:03 29.98365 -81.36589 26061 ft 475 kts 351°
2026-05-05 20:03 30.01678 -81.36782 26495 ft 478 kts 351°
2026-05-05 20:03 30.05002 -81.36972 26927 ft 480 kts 351°
2026-05-05 20:04 30.08346 -81.37165 27372 ft 482 kts 351°
2026-05-05 20:04 30.11700 -81.37360 27812 ft 484 kts 351°
2026-05-05 20:04 30.15073 -81.37553 28286 ft 487 kts 351°
2026-05-05 20:04 30.18466 -81.37749 28737 ft 489 kts 351°
2026-05-05 20:05 30.21873 -81.37949 29209 ft 493 kts 351°
2026-05-05 20:05 30.25315 -81.38144 29697 ft 494 kts 351°
2026-05-05 20:05 30.28736 -81.38342 30183 ft 491 kts 351°
2026-05-05 20:05 30.32136 -81.38541 30591 ft 487 kts 351°
2026-05-05 20:06 30.35503 -81.38736 30999 ft 481 kts 351°
2026-05-05 20:06 30.38825 -81.38928 31435 ft 476 kts 351°
2026-05-05 20:06 30.42113 -81.39125 31871 ft 471 kts 350°
2026-05-05 20:06 30.45374 -81.39329 32307 ft 469 kts 351°
2026-05-05 20:07 30.48624 -81.39482 32767 ft 466 kts 351°
2026-05-05 20:07 30.51852 -81.39653 33241 ft 462 kts 351°
2026-05-05 20:07 30.55047 -81.39823 33704 ft 458 kts 351°
2026-05-05 20:07 30.58224 -81.39991 34168 ft 454 kts 351°
2026-05-05 20:08 30.61365 -81.40157 34582 ft 450 kts 350°
2026-05-05 20:08 30.64485 -81.40323 35005 ft 448 kts 350°
2026-05-05 20:08 30.67558 -81.40486 35426 ft 448 kts 350°
2026-05-05 20:08 30.70671 -81.40650 35874 ft 447 kts 349°
2026-05-05 20:09 30.73793 -81.40815 36324 ft 446 kts 349°
2026-05-05 20:09 30.76894 -81.40981 36718 ft 446 kts 349°
2026-05-05 20:09 30.80008 -81.41149 36878 ft 449 kts 349°
2026-05-05 20:10 30.86220 -81.41475 36992 ft 448 kts 349°
2026-05-05 20:10 30.92410 -81.41806 37011 ft 443 kts 349°
2026-05-05 20:11 30.98557 -81.42134 37031 ft 442 kts 349°
2026-05-05 20:11 31.04725 -81.42464 37029 ft 444 kts 349°
2026-05-05 20:12 31.10910 -81.42793 37032 ft 445 kts 349°
2026-05-05 20:12 31.17096 -81.43125 37029 ft 444 kts 349°
2026-05-05 20:13 31.23293 -81.43221 37012 ft 457 kts
2026-05-05 20:13 31.26426 -81.42311 37092 ft 468 kts
2026-05-05 20:13 31.29542 -81.41148 37071 ft 474 kts 10°
2026-05-05 20:14 31.35648 -81.37913 37039 ft 482 kts 14°
2026-05-05 20:14 31.41734 -81.34618 37019 ft 481 kts 15°
2026-05-05 20:15 31.47768 -81.31343 37018 ft 480 kts 15°
2026-05-05 20:15 31.53833 -81.28043 37016 ft 481 kts 15°
2026-05-05 20:16 31.59923 -81.24724 37009 ft 482 kts 15°
2026-05-05 20:16 31.66001 -81.21409 37010 ft 481 kts 15°
2026-05-05 20:17 31.72068 -81.18094 37004 ft 480 kts 15°
2026-05-05 20:17 31.78134 -81.14776 36999 ft 481 kts 15°
2026-05-05 20:18 31.84199 -81.11453 36995 ft 481 kts 15°
2026-05-05 20:18 31.90264 -81.08125 36989 ft 480 kts 15°
2026-05-05 20:19 31.96283 -81.04820 36992 ft 479 kts 14°
2026-05-05 20:19 32.02317 -81.01476 36993 ft 480 kts 15°
2026-05-05 20:20 32.08347 -80.98109 36999 ft 480 kts 15°
2026-05-05 20:20 32.14385 -80.94726 37001 ft 479 kts 15°
2026-05-05 20:21 32.20413 -80.91347 37042 ft 478 kts 15°
2026-05-05 20:21 32.26417 -80.87975 37046 ft 478 kts 15°
2026-05-05 20:22 32.32426 -80.84597 37047 ft 478 kts 15°
2026-05-05 20:22 32.38437 -80.81211 37036 ft 478 kts 15°
2026-05-05 20:23 32.44441 -80.77824 37034 ft 477 kts 15°
2026-05-05 20:23 32.50432 -80.74442 37035 ft 477 kts 15°
2026-05-05 20:24 32.56414 -80.71057 37038 ft 477 kts 15°
2026-05-05 20:24 32.62427 -80.67651 37036 ft 478 kts 15°
2026-05-05 20:25 32.68402 -80.64282 37030 ft 476 kts 14°
2026-05-05 20:25 32.74368 -80.60789 37025 ft 479 kts 17°
2026-05-05 20:26 32.80329 -80.57260 37023 ft 479 kts 17°
2026-05-05 20:26 32.86293 -80.53710 37022 ft 479 kts 17°
2026-05-05 20:27 32.92249 -80.50165 37018 ft 478 kts 17°
2026-05-05 20:27 32.98155 -80.46644 37021 ft 477 kts 17°
2026-05-05 20:28 33.04101 -80.43095 37001 ft 477 kts 17°
2026-05-05 20:28 33.10048 -80.39539 36999 ft 477 kts 17°
2026-05-05 20:29 33.15980 -80.35986 37001 ft 477 kts 17°
2026-05-05 20:29 33.21867 -80.32456 37005 ft 476 kts 17°
2026-05-05 20:30 33.27778 -80.28905 37010 ft 475 kts 17°
2026-05-05 20:30 33.32693 -80.25950 37016 ft 475 kts 17°
2026-05-05 20:31 33.38595 -80.22394 37013 ft 475 kts 17°
2026-05-05 20:31 33.44519 -80.18820 37007 ft 473 kts 17°
2026-05-05 20:32 33.50354 -80.15294 37010 ft 472 kts 17°
2026-05-05 20:32 33.56215 -80.11748 37018 ft 472 kts 17°
2026-05-05 20:33 33.62074 -80.08197 37012 ft 472 kts 17°
2026-05-05 20:33 33.67945 -80.04635 37005 ft 471 kts 17°
2026-05-05 20:34 33.73792 -80.01081 37010 ft 470 kts 17°
2026-05-05 20:34 33.79634 -79.97526 37002 ft 470 kts 18°
2026-05-05 20:35 33.85414 -79.94004 37004 ft 470 kts 18°
2026-05-05 20:35 33.91248 -79.90441 37001 ft 470 kts 18°
2026-05-05 20:36 33.97076 -79.86877 37006 ft 470 kts 18°
2026-05-05 20:36 34.02911 -79.83305 37009 ft 470 kts 18°
2026-05-05 20:37 34.08744 -79.79726 37010 ft 471 kts 18°
2026-05-05 20:37 34.14586 -79.76138 37008 ft 471 kts 18°
2026-05-05 20:38 34.20424 -79.72546 37009 ft 470 kts 18°
2026-05-05 20:38 34.26257 -79.68951 37004 ft 471 kts 18°
2026-05-05 20:39 34.32098 -79.65346 37008 ft 472 kts 18°
2026-05-05 20:39 34.37914 -79.61752 37010 ft 472 kts 18°
2026-05-05 20:40 34.43769 -79.58127 36997 ft 472 kts 18°
2026-05-05 20:40 34.49609 -79.54504 36992 ft 472 kts 18°
2026-05-05 20:41 34.55468 -79.50915 36990 ft 475 kts 21°
2026-05-05 20:41 34.61242 -79.46976 37005 ft 475 kts 20°
2026-05-05 20:42 34.67032 -79.43087 36995 ft 473 kts 17°
2026-05-05 20:42 34.70042 -79.41669 37025 ft 460 kts
2026-05-05 20:42 34.73102 -79.40551 37020 ft 459 kts
2026-05-05 20:43 34.79296 -79.39066 37011 ft 453 kts
2026-05-05 20:43 34.85512 -79.37730 36997 ft 453 kts
2026-05-05 20:44 34.91685 -79.36417 36991 ft 453 kts
2026-05-05 20:44 34.97895 -79.35091 36960 ft 452 kts
2026-05-05 20:45 35.07204 -79.33100 37020 ft 454 kts
2026-05-05 20:45 35.13429 -79.31765 37053 ft 454 kts
2026-05-05 20:46 35.19644 -79.30431 37057 ft 453 kts
2026-05-05 20:46 35.25843 -79.29098 37058 ft 453 kts
2026-05-05 20:47 35.32067 -79.27757 37063 ft 454 kts
2026-05-05 20:47 35.38290 -79.26416 37062 ft 454 kts
2026-05-05 20:48 35.44462 -79.25082 37051 ft 453 kts
2026-05-05 20:48 35.50671 -79.23738 37043 ft 453 kts
2026-05-05 20:49 35.56893 -79.22390 37040 ft 454 kts
2026-05-05 20:49 35.63110 -79.21040 37041 ft 454 kts
2026-05-05 20:50 35.69329 -79.19688 37051 ft 453 kts
2026-05-05 20:50 35.72418 -79.18829 37035 ft 463 kts 13°
2026-05-05 20:50 35.75377 -79.17149 37109 ft 472 kts 19°
2026-05-05 20:51 35.81062 -79.12928 37153 ft 485 kts 27°
2026-05-05 20:51 35.86564 -79.08132 37156 ft 485 kts 26°
2026-05-05 20:52 35.92030 -79.03352 37140 ft 483 kts 26°
2026-05-05 20:52 35.97518 -78.98562 37138 ft 483 kts 27°
2026-05-05 20:53 36.03007 -78.93760 37140 ft 484 kts 27°
2026-05-05 20:53 36.08502 -78.88943 37148 ft 485 kts 27°
2026-05-05 20:54 36.14012 -78.84106 37147 ft 485 kts 27°
2026-05-05 20:54 36.19482 -78.79297 37153 ft 485 kts 27°
2026-05-05 20:55 36.24985 -78.74448 37155 ft 486 kts 27°
2026-05-05 20:55 36.30504 -78.69578 37151 ft 487 kts 27°
2026-05-05 20:56 36.36030 -78.64692 37156 ft 487 kts 27°
2026-05-05 20:56 36.41547 -78.59805 37159 ft 487 kts 27°
2026-05-05 20:57 36.47141 -78.55106 37171 ft 482 kts 23°
2026-05-05 20:57 36.52841 -78.50644 37178 ft 485 kts 24°
2026-05-05 20:58 36.58555 -78.46176 37165 ft 485 kts 24°
2026-05-05 20:58 36.64265 -78.41693 37159 ft 485 kts 24°
2026-05-05 20:59 36.69980 -78.37197 37162 ft 486 kts 24°
2026-05-05 20:59 36.75677 -78.32708 37166 ft 487 kts 24°
2026-05-05 21:00 36.81386 -78.28201 37175 ft 488 kts 24°
2026-05-05 21:00 36.87122 -78.23666 37186 ft 487 kts 24°
2026-05-05 21:01 36.92850 -78.19127 37177 ft 487 kts 25°
2026-05-05 21:01 36.98579 -78.14579 37168 ft 488 kts 25°
2026-05-05 21:02 37.04229 -78.10077 37010 ft 468 kts 24°
2026-05-05 21:02 37.06963 -78.07912 36688 ft 461 kts 24°
2026-05-05 21:02 37.09653 -78.05767 36422 ft 456 kts 24°
2026-05-05 21:03 37.12319 -78.03640 36182 ft 454 kts 24°
2026-05-05 21:03 37.14994 -78.01508 35954 ft 457 kts 24°
2026-05-05 21:03 37.17668 -77.99369 35717 ft 454 kts 24°
2026-05-05 21:03 37.20316 -77.97248 35464 ft 450 kts 24°
2026-05-05 21:04 37.22947 -77.95146 35219 ft 447 kts 23°
2026-05-05 21:04 37.25568 -77.93045 34876 ft 444 kts 23°
2026-05-05 21:04 37.28124 -77.90995 34525 ft 440 kts 23°
2026-05-05 21:04 37.30691 -77.88938 34184 ft 435 kts 22°
2026-05-05 21:05 37.33229 -77.86900 33811 ft 430 kts 22°
2026-05-05 21:05 37.35749 -77.84880 33418 ft 428 kts 23°
2026-05-05 21:05 37.38251 -77.82866 32908 ft 425 kts 24°
2026-05-05 21:05 37.40737 -77.80863 32359 ft 424 kts 24°
2026-05-05 21:06 37.43225 -77.78861 31848 ft 426 kts 25°
2026-05-05 21:06 37.45672 -77.76879 31294 ft 410 kts 26°
2026-05-05 21:06 37.48050 -77.74952 30614 ft 403 kts 26°
2026-05-05 21:06 37.50409 -77.73058 30039 ft 403 kts 30°
2026-05-05 21:07 37.52766 -77.71159 29621 ft 399 kts 26°
2026-05-05 21:07 37.55109 -77.69299 29480 ft 399 kts 28°
2026-05-05 21:07 37.57438 -77.67373 29262 ft 403 kts 28°
2026-05-05 21:07 37.59837 -77.65451 28976 ft 417 kts 28°
2026-05-05 21:08 37.62291 -77.63472 28649 ft 417 kts 28°
2026-05-05 21:08 37.64686 -77.61528 28263 ft 413 kts 28°
2026-05-05 21:08 37.67136 -77.59549 27878 ft 410 kts 28°
2026-05-05 21:08 37.69532 -77.57610 27502 ft 407 kts 28°
2026-05-05 21:09 37.71903 -77.55690 27141 ft 404 kts 29°
2026-05-05 21:09 37.74232 -77.53799 26744 ft 402 kts 29°
2026-05-05 21:09 37.76576 -77.51898 26436 ft 397 kts 29°
2026-05-05 21:09 37.78963 -77.49962 26328 ft 418 kts 29°
2026-05-05 21:10 37.81444 -77.47942 26180 ft 424 kts 30°
2026-05-05 21:10 37.83915 -77.45925 25990 ft 420 kts 30°
2026-05-05 21:10 37.86356 -77.43941 25796 ft 414 kts 30°
2026-05-05 21:10 37.88762 -77.41981 25646 ft 409 kts 30°
2026-05-05 21:11 37.91150 -77.40034 25585 ft 408 kts 30°
2026-05-05 21:11 37.93539 -77.38084 25509 ft 410 kts 30°
2026-05-05 21:11 37.95943 -77.36118 25444 ft 412 kts 30°
2026-05-05 21:11 37.98351 -77.34147 25365 ft 412 kts 30°
2026-05-05 21:12 38.00755 -77.32187 25284 ft 410 kts 30°
2026-05-05 21:12 38.03148 -77.30230 25200 ft 409 kts 30°
2026-05-05 21:12 38.05543 -77.28270 25127 ft 409 kts 30°
2026-05-05 21:12 38.07905 -77.26336 25054 ft 409 kts 30°
2026-05-05 21:13 38.10291 -77.24382 24982 ft 409 kts 30°
2026-05-05 21:13 38.12688 -77.22415 24909 ft 409 kts 30°
2026-05-05 21:13 38.15069 -77.20460 24839 ft 408 kts 30°
2026-05-05 21:13 38.17456 -77.18500 24771 ft 407 kts 30°
2026-05-05 21:14 38.19833 -77.16547 24699 ft 407 kts 30°
2026-05-05 21:14 38.22207 -77.14593 24630 ft 407 kts 30°
2026-05-05 21:14 38.24583 -77.12636 24564 ft 407 kts 30°
2026-05-05 21:14 38.26963 -77.10693 24495 ft 406 kts 30°
2026-05-05 21:15 38.29334 -77.08743 24422 ft 406 kts 33°
2026-05-05 21:15 38.31581 -77.06556 24353 ft 406 kts 36°
2026-05-05 21:15 38.33828 -77.04374 24297 ft 406 kts 34°
2026-05-05 21:15 38.36090 -77.02211 24222 ft 406 kts 34°
2026-05-05 21:16 38.37581 -77.00778 24180 ft 406 kts 35°
2026-05-05 21:16 38.39837 -76.98599 24097 ft 406 kts 35°
2026-05-05 21:16 38.42086 -76.96431 24046 ft 405 kts 34°
2026-05-05 21:16 38.45066 -76.93559 23951 ft 405 kts 35°
2026-05-05 21:17 38.46582 -76.92096 23920 ft 405 kts 35°
2026-05-05 21:17 38.48827 -76.89927 23843 ft 405 kts 35°
2026-05-05 21:17 38.51074 -76.87755 23765 ft 404 kts 35°
2026-05-05 21:17 38.53312 -76.85591 23700 ft 404 kts 35°
2026-05-05 21:18 38.55556 -76.83418 23624 ft 404 kts 35°
2026-05-05 21:18 38.57795 -76.81249 23576 ft 403 kts 35°
2026-05-05 21:18 38.60028 -76.79083 23488 ft 403 kts 35°
2026-05-05 21:18 38.62256 -76.76921 23411 ft 403 kts 35°
2026-05-05 21:19 38.64463 -76.74779 23326 ft 402 kts 35°
2026-05-05 21:19 38.66690 -76.72612 23249 ft 401 kts 35°
2026-05-05 21:19 38.68921 -76.70444 23167 ft 401 kts 35°
2026-05-05 21:19 38.71137 -76.68286 23085 ft 400 kts 35°
2026-05-05 21:20 38.73354 -76.66127 23011 ft 400 kts 35°
2026-05-05 21:20 38.75566 -76.63969 22927 ft 400 kts 35°
2026-05-05 21:20 38.77778 -76.61811 22863 ft 399 kts 34°
2026-05-05 21:20 38.79985 -76.59655 22772 ft 399 kts 34°
2026-05-05 21:21 38.82194 -76.57497 22690 ft 398 kts 35°
2026-05-05 21:21 38.84397 -76.55341 22622 ft 398 kts 34°
2026-05-05 21:21 38.86596 -76.53190 22539 ft 397 kts 34°
2026-05-05 21:21 38.88793 -76.51035 22481 ft 397 kts 34°
2026-05-05 21:22 38.90986 -76.48885 22385 ft 397 kts 34°
2026-05-05 21:22 38.93141 -76.46771 22304 ft 396 kts 34°
2026-05-05 21:22 38.95370 -76.44582 22231 ft 396 kts 35°
2026-05-05 21:22 38.97550 -76.42440 22141 ft 395 kts 34°
2026-05-05 21:23 38.99735 -76.40290 22057 ft 395 kts 34°
2026-05-05 21:23 39.01893 -76.38197 21966 ft 394 kts 34°
2026-05-05 21:23 39.04009 -76.35932 21889 ft 396 kts 40°
2026-05-05 21:23 39.06026 -76.33517 21833 ft 396 kts 40°
2026-05-05 21:24 39.08067 -76.31143 21767 ft 395 kts 39°
2026-05-05 21:24 39.10109 -76.28773 21677 ft 395 kts 39°
2026-05-05 21:24 39.12148 -76.26390 21590 ft 395 kts 39°
2026-05-05 21:24 39.14182 -76.24013 21519 ft 395 kts 39°
2026-05-05 21:25 39.16220 -76.21636 21446 ft 394 kts 39°
2026-05-05 21:25 39.18244 -76.19268 21374 ft 393 kts 39°
2026-05-05 21:25 39.20274 -76.16895 21295 ft 392 kts 39°
2026-05-05 21:25 39.22291 -76.14531 21223 ft 392 kts 39°
2026-05-05 21:26 39.24312 -76.12165 21150 ft 392 kts 39°
2026-05-05 21:26 39.26323 -76.09807 21071 ft 392 kts 39°
2026-05-05 21:26 39.28342 -76.07435 21003 ft 391 kts 39°
2026-05-05 21:26 39.30353 -76.05072 20916 ft 391 kts 39°
2026-05-05 21:27 39.32362 -76.02712 20856 ft 390 kts 39°
2026-05-05 21:27 39.34361 -76.00357 20778 ft 389 kts 39°
2026-05-05 21:27 39.36365 -75.97999 20708 ft 389 kts 39°
2026-05-05 21:27 39.38361 -75.95646 20627 ft 389 kts 39°
2026-05-05 21:28 39.40335 -75.93318 20491 ft 390 kts 39°
2026-05-05 21:28 39.42335 -75.90955 20363 ft 388 kts 39°
2026-05-05 21:28 39.44324 -75.88605 20211 ft 386 kts 39°
2026-05-05 21:28 39.46305 -75.86264 20076 ft 385 kts 39°
2026-05-05 21:29 39.48285 -75.83920 19974 ft 384 kts 39°
2026-05-05 21:29 39.50256 -75.81587 19928 ft 383 kts 39°
2026-05-05 21:29 39.52223 -75.79255 19910 ft 384 kts 39°
2026-05-05 21:29 39.54197 -75.76914 19907 ft 385 kts 39°
2026-05-05 21:30 39.56173 -75.74568 19893 ft 386 kts 39°
2026-05-05 21:30 39.57986 -75.72412 19893 ft 385 kts 39°
2026-05-05 21:30 39.59964 -75.70061 19890 ft 385 kts 39°
2026-05-05 21:30 39.61941 -75.67709 19891 ft 385 kts 39°
2026-05-05 21:31 39.63916 -75.65356 19895 ft 385 kts 39°
2026-05-05 21:31 39.65871 -75.63046 19887 ft 386 kts 39°
2026-05-05 21:31 39.67849 -75.60681 19891 ft 385 kts 40°
2026-05-05 21:31 39.69832 -75.58278 19887 ft 385 kts 40°
2026-05-05 21:32 39.71799 -75.55913 19894 ft 385 kts 39°
2026-05-05 21:32 39.73745 -75.53574 19885 ft 386 kts 40°
2026-05-05 21:32 39.75714 -75.51202 19901 ft 386 kts 40°
2026-05-05 21:32 39.77674 -75.48838 19890 ft 386 kts 40°
2026-05-05 21:33 39.79649 -75.46454 19895 ft 386 kts 39°
2026-05-05 21:33 39.81616 -75.44080 19880 ft 386 kts 40°
2026-05-05 21:33 39.83584 -75.41698 19883 ft 386 kts 40°
2026-05-05 21:33 39.85549 -75.39321 19879 ft 386 kts 40°
2026-05-05 21:34 39.87518 -75.36939 19877 ft 386 kts 40°
2026-05-05 21:34 39.89486 -75.34552 19882 ft 386 kts 40°
2026-05-05 21:34 39.91452 -75.32168 19879 ft 386 kts 40°
2026-05-05 21:34 39.93418 -75.29782 19880 ft 386 kts 40°
2026-05-05 21:35 39.95380 -75.27398 19877 ft 386 kts 40°
2026-05-05 21:35 39.97342 -75.25012 19882 ft 386 kts 40°
2026-05-05 21:35 39.99317 -75.22610 19882 ft 387 kts 39°
2026-05-05 21:35 40.01260 -75.20243 19876 ft 386 kts 40°
2026-05-05 21:36 40.03245 -75.17822 19879 ft 386 kts 40°
2026-05-05 21:36 40.05182 -75.15461 19877 ft 386 kts 40°
2026-05-05 21:36 40.07146 -75.13064 19874 ft 386 kts 39°
2026-05-05 21:36 40.09112 -75.10660 19878 ft 387 kts 40°
2026-05-05 21:37 40.11076 -75.08258 19882 ft 387 kts 39°
2026-05-05 21:37 40.13039 -75.05856 19883 ft 387 kts 39°
2026-05-05 21:37 40.15006 -75.03446 19881 ft 387 kts 39°
2026-05-05 21:37 40.16965 -75.01045 19878 ft 386 kts 40°
2026-05-05 21:38 40.18928 -74.98636 19880 ft 386 kts 39°
2026-05-05 21:38 40.20859 -74.96263 19870 ft 387 kts 40°
2026-05-05 21:38 40.22857 -74.93829 19859 ft 386 kts 38°
2026-05-05 21:38 40.24857 -74.91471 19856 ft 387 kts 41°
2026-05-05 21:39 40.26693 -74.88874 19856 ft 388 kts 45°
2026-05-05 21:39 40.28502 -74.86311 19853 ft 388 kts 43°
2026-05-05 21:39 40.30359 -74.83735 19855 ft 388 kts 44°
2026-05-05 21:39 40.32195 -74.81148 19850 ft 388 kts 44°
2026-05-05 21:40 40.34032 -74.78555 19848 ft 388 kts 44°
2026-05-05 21:40 40.35876 -74.75968 19852 ft 388 kts 44°
2026-05-05 21:40 40.37710 -74.73386 19852 ft 388 kts 44°
2026-05-05 21:40 40.39557 -74.70790 19851 ft 388 kts 41°
2026-05-05 21:41 40.41651 -74.68652 19424 ft 372 kts 22°
2026-05-05 21:41 40.43903 -74.67292 19071 ft 343 kts 16°
2026-05-05 21:41 40.46064 -74.66217 18616 ft 324 kts 13°
2026-05-05 21:41 40.48161 -74.65283 18167 ft 313 kts 12°
2026-05-05 21:42 40.50203 -74.64417 17680 ft 306 kts 11°
2026-05-05 21:42 40.52225 -74.63576 17201 ft 302 kts 11°
2026-05-05 21:42 40.54220 -74.62752 16740 ft 301 kts 11°
2026-05-05 21:42 40.56220 -74.61929 16287 ft 300 kts 11°
2026-05-05 21:43 40.58208 -74.61109 15851 ft 298 kts 11°
2026-05-05 21:43 40.60180 -74.60293 15419 ft 296 kts 11°
2026-05-05 21:43 40.62142 -74.59477 14970 ft 294 kts 11°
2026-05-05 21:43 40.63461 -74.58925 14669 ft 293 kts 11°
2026-05-05 21:44 40.64918 -74.58311 14349 ft 291 kts 11°
2026-05-05 21:44 40.66837 -74.57495 13920 ft 289 kts 11°
2026-05-05 21:44 40.68742 -74.56676 13493 ft 288 kts 11°
2026-05-05 21:45 40.70640 -74.55855 13030 ft 286 kts 11°
2026-05-05 21:45 40.72531 -74.55038 12565 ft 285 kts 11°
2026-05-05 21:45 40.74406 -74.54232 12061 ft 282 kts 11°
2026-05-05 21:45 40.76265 -74.53431 11539 ft 279 kts 11°
2026-05-05 21:46 40.78118 -74.52646 11036 ft 279 kts 11°
2026-05-05 21:46 40.79958 -74.51872 10526 ft 276 kts 11°
2026-05-05 21:46 40.81760 -74.51117 10063 ft 274 kts 11°
2026-05-05 21:46 40.83577 -74.50369 9554 ft 273 kts 11°
2026-05-05 21:47 40.85389 -74.49638 9036 ft 272 kts 11°
2026-05-05 21:47 40.87193 -74.48918 8516 ft 272 kts 11°
2026-05-05 21:47 40.89005 -74.48230 8132 ft 268 kts 11°
2026-05-05 21:47 40.90802 -74.47540 7987 ft 270 kts 11°
2026-05-05 21:48 40.92614 -74.46878 7912 ft 270 kts 10°
2026-05-05 21:48 40.94420 -74.46206 7887 ft 269 kts 11°
2026-05-05 21:48 40.96156 -74.45527 7654 ft 254 kts 16°
2026-05-05 21:48 40.97644 -74.44222 6994 ft 264 kts 49°
2026-05-05 21:49 40.98520 -74.42094 6262 ft 265 kts 82°
2026-05-05 21:49 40.98660 -74.40063 5895 ft 249 kts 96°
2026-05-05 21:49 40.98635 -74.37828 5783 ft 242 kts 98°
2026-05-05 21:49 40.98551 -74.35589 5356 ft 243 kts 99°
2026-05-05 21:50 40.98444 -74.33377 4916 ft 236 kts 100°
2026-05-05 21:50 40.98340 -74.31215 4484 ft 236 kts 100°
2026-05-05 21:50 40.98223 -74.29079 4086 ft 229 kts 99°
2026-05-05 21:50 40.98116 -74.26972 3655 ft 230 kts 100°
2026-05-05 21:51 40.98007 -74.24896 3242 ft 227 kts 100°
2026-05-05 21:51 40.97900 -74.22789 2832 ft 228 kts 100°
2026-05-05 21:51 40.97790 -74.20722 2438 ft 222 kts 99°
2026-05-05 21:51 40.97521 -74.18780 1910 ft 217 kts 122°
2026-05-05 21:52 40.95993 -74.15342 1273 ft 201 kts 129°
2026-05-05 21:52 40.95188 -74.13786 1777 ft 209 kts 131°
2026-05-05 21:52 40.94346 -74.12199 2104 ft 211 kts 131°
2026-05-05 21:53 40.93509 -74.10618 2329 ft 205 kts 135°
2026-05-05 21:53 40.92432 -74.09457 2177 ft 198 kts 162°
2026-05-05 21:53 40.91234 -74.08703 2276 ft 191 kts 164°
2026-05-05 21:53 40.90016 -74.08000 2435 ft 185 kts 166°
2026-05-05 21:54 40.88815 -74.07466 3041 ft 183 kts 174°
2026-05-05 21:54 40.87519 -74.07225 3104 ft 184 kts 184°
2026-05-05 21:54 40.86279 -74.07106 3040 ft 175 kts 187°
2026-05-05 21:54 40.85132 -74.07381 2984 ft 165 kts 202°
2026-05-05 21:55 40.84019 -74.07794 3004 ft 164 kts 203°
2026-05-05 21:55 40.82917 -74.08281 2710 ft 169 kts 204°
2026-05-05 21:55 40.81841 -74.08825 2440 ft 164 kts 204°
2026-05-05 21:55 40.80768 -74.09314 2283 ft 163 kts 205°
2026-05-05 21:56 40.79706 -74.09833 2132 ft 156 kts 206°
2026-05-05 21:56 40.78713 -74.10381 1892 ft 155 kts 210°
2026-05-05 21:56 40.77757 -74.10996 1687 ft 151 kts 210°
2026-05-05 21:56 40.76807 -74.11621 1493 ft 153 kts 210°
2026-05-05 21:57 40.75874 -74.12234 1314 ft 153 kts 209°
2026-05-05 21:57 40.74921 -74.12892 1183 ft 153 kts 208°
2026-05-05 21:57 40.73967 -74.13462 986 ft 149 kts 205°
2026-05-05 21:57 40.73010 -74.14063 722 ft 154 kts 209°
2026-05-05 21:58 40.72045 -74.14692 523 ft 152 kts 205°
2026-05-05 21:58 40.71096 -74.15264 351 ft 148 kts 210°
2026-05-05 21:58 40.70196 -74.15863 149 ft 145 kts 210°
2026-05-05 21:58 40.69314 -74.16424 35 ft 133 kts 210°
2026-05-05 21:59 40.68744 -74.16797 29 ft 50 kts 206°
2026-05-05 21:59 40.68585 -74.16931 30 ft 11 kts 231°
2026-05-05 21:59 40.68553 -74.16978 30 ft 9 kts 227°
2026-05-05 21:59 40.68511 -74.17046 31 ft 14 kts 234°
2026-05-05 22:00 40.68458 -74.17145 32 ft 12 kts 236°
2026-05-05 22:00 40.68414 -74.17217 32 ft 13 kts 221°
2026-05-05 22:00 40.68333 -74.17280 31 ft 13 kts 206°
2026-05-05 22:00 40.68242 -74.17339 31 ft 17 kts 206°
2026-05-05 22:01 40.68139 -74.17404 30 ft 13 kts 206°
2026-05-05 22:01 40.68118 -74.17417 30 ft 0 kts 206°
2026-05-05 22:02 40.68117 -74.17418 30 ft 2 kts 205°
2026-05-05 22:02 40.68029 -74.17474 30 ft 23 kts 207°
2026-05-05 22:02 40.67894 -74.17560 30 ft 20 kts 206°
2026-05-05 22:03 40.67778 -74.17633 30 ft 16 kts 203°
2026-05-05 22:03 40.67739 -74.17667 31 ft 1 kts 239°
2026-05-05 22:03 40.67740 -74.17673 31 ft 2 kts 263°
2026-05-05 22:03 40.67752 -74.17754 30 ft 14 kts 291°
2026-05-05 22:04 40.67806 -74.17902 31 ft 22 kts 298°
2026-05-05 22:04 40.67868 -74.18066 31 ft 18 kts 295°
2026-05-05 22:04 40.67918 -74.18163 31 ft 8 kts 315°
2026-05-05 22:04 40.67928 -74.18182 31 ft 0 kts 301°
2026-05-05 22:05 40.67934 -74.18195 31 ft 3 kts 300°
2026-05-05 22:05 40.67941 -74.18214 31 ft 2 kts 296°
2026-05-05 22:06 40.67946 -74.18227 30 ft 2 kts 296°
2026-05-05 22:06 40.67949 -74.18236 31 ft 0 kts 296°
2026-05-05 22:06 40.67951 -74.18241 31 ft 0 kts 296°